Fort Knox, KY

7:58 PM EST on December 08, 2016 (GMT -0500)
Godman Army Air Field

Weather History for KFTK - February, 2014

Change the Weather History Date:

Saturday, February 8, 2014

  Actual Average Record
Temperature  
Mean Temperature 22 °F -  
Max Temperature 28 °F 44 °F 68 °F (2001)
Min Temperature 16 °F 27 °F 3 °F (2003)
Degree Days  
Heating Degree Days 43    
Moisture  
Dew Point 20 °F    
Average Humidity 89    
Maximum Humidity 96    
Minimum Humidity 82    
Precipitation  
Precipitation 0.00 in - - ()
Snow  
Snow 0.00 in - - ()
Snow Depth 1.00 in    
Sea Level Pressure  
Sea Level Pressure 30.25 in    
Wind  
Wind Speed 2 mph (ESE)    
Max Wind Speed 7 mph    
Max Gust Speed -    
Visibility 5 miles    
Events Snow    
Averages and records for this station are not official NWS values.
T = Trace of Precipitation, MM = Missing Value Source: NWS Daily Summary

Daily Weather History Graph

Daily Weather History Graph

Search for Another Location

Airport or City:

Trip Planner

Search our weather history database for the weather conditions in past years. The results will help you decide how hot, cold, wet, or windy it might be!

Date:

Astronomy

Feb. 08, 2014 Rise Set
Actual Time 7:41 AM EST 6:15 PM EST
Civil Twilight 7:14 AM EST 6:42 PM EST
Nautical Twilight 6:43 AM EST 7:13 PM EST
Astronomical Twilight 6:12 AM EST 7:44 PM EST
Moon 1:10 PM EST (2/8) 2:52 AM EST (2/8)
Length of Visible Light 11h 28m
Length of Day
10h 33m
Waxing Gibbous, 68% of the Moon is Illuminated
Feb 8
Waxing Gibbous
Feb 14
Full
Feb 22
Last Quarter
Mar 1
New
Mar 8
First Quarter

Hourly Weather History & Observations

Time (EST) Temp. Windchill Dew Point Humidity Pressure Visibility Wind Dir Wind Speed Gust Speed Precip Events Conditions
12:58 AM 16.5 °F - 12.9 °F 86% 30.37 in 10.0 mi Calm Calm - N/A   Overcast
1:58 AM 16.9 °F - 12.4 °F 82% 30.37 in 10.0 mi Calm Calm - N/A   Overcast
2:58 AM 16.9 °F - 12.6 °F 83% 30.36 in 10.0 mi Calm Calm - N/A   Overcast
3:58 AM 17.1 °F - 13.6 °F 86% 30.35 in 10.0 mi Calm Calm - N/A   Overcast
4:58 AM 17.4 °F - 14.0 °F 86% 30.33 in 10.0 mi Calm Calm - N/A   Overcast
5:58 AM 17.6 °F - 14.4 °F 87% 30.31 in 10.0 mi Calm Calm - N/A   Overcast
6:58 AM 18.0 °F 11.1 °F 14.7 °F 87% 30.30 in 10.0 mi ENE 4.6 mph - N/A   Overcast
7:23 AM 17.6 °F 12.3 °F 14.0 °F 86% 30.25 in 10.0 mi ENE 3.5 mph - N/A   Overcast
7:53 AM 17.6 °F 9.3 °F 14.0 °F 86% 30.25 in 10.0 mi ENE 5.8 mph - N/A   Overcast
7:58 AM 18.0 °F 9.8 °F 14.7 °F 87% 30.31 in 10.0 mi ENE 5.8 mph - N/A   Overcast
8:23 AM 17.6 °F 8.2 °F 15.8 °F 93% 30.26 in 10.0 mi ENE 6.9 mph - N/A   Overcast
8:43 AM 19.4 °F 11.5 °F 15.8 °F 86% 30.27 in 10.0 mi ENE 5.8 mph - N/A   Overcast
8:51 AM 19.4 °F 11.5 °F 15.8 °F 86% 30.27 in 4.0 mi ENE 5.8 mph - N/A Snow Light Snow
8:58 AM 18.7 °F 10.6 °F 15.8 °F 89% 30.33 in 4.0 mi ENE 5.8 mph - 0.00 in Snow Light Snow
9:17 AM 19.4 °F 10.4 °F 15.8 °F 86% 30.28 in 1.5 mi ENE 6.9 mph - N/A Snow Light Snow
9:47 AM 19.4 °F - 15.8 °F 86% 30.28 in 1.8 mi Calm Calm - N/A Snow Light Snow
9:58 AM 19.4 °F 11.5 °F 15.8 °F 86% 30.33 in 1.8 mi East 5.8 mph - 0.00 in Snow Light Snow
10:57 AM 21.4 °F 12.8 °F 18.5 °F 89% 30.32 in 2.0 mi East 6.9 mph - 0.00 in Snow Light Snow
11:40 AM 23.0 °F - 19.4 °F 86% 30.26 in 6.0 mi Calm Calm - N/A Snow Light Snow
11:45 AM 23.0 °F - 19.4 °F 86% 30.26 in 4.0 mi Calm Calm - N/A Snow Light Snow
11:50 AM 23.0 °F - 21.2 °F 93% 30.26 in 4.0 mi Calm Calm - N/A Snow Light Snow
11:58 AM 23.2 °F 16.0 °F 20.5 °F 89% 30.30 in 1.5 mi East 5.8 mph - 0.00 in Snow Light Snow
12:38 PM 24.8 °F 19.1 °F 21.2 °F 86% 30.24 in 4.0 mi East 4.6 mph - N/A   Overcast
12:58 PM 24.6 °F 17.7 °F 21.9 °F 89% 30.27 in 4.0 mi East 5.8 mph - 0.00 in   Overcast
1:58 PM 25.7 °F 20.1 °F 23.2 °F 90% 30.23 in 4.0 mi ESE 4.6 mph - N/A   Overcast
2:06 PM 26.6 °F 20.0 °F 23.0 °F 86% 30.18 in 4.0 mi ESE 5.8 mph - N/A   Overcast
2:55 PM 26.4 °F 19.8 °F 23.9 °F 90% 30.20 in 5.0 mi ESE 5.8 mph - N/A   Overcast
3:55 PM 27.0 °F 20.5 °F 24.8 °F 92% 30.19 in 5.0 mi SSE 5.8 mph - N/A   Overcast
4:55 PM 27.7 °F 22.4 °F 25.3 °F 91% 30.18 in 4.0 mi SSE 4.6 mph - N/A   Overcast
5:56 PM 28.0 °F 22.8 °F 26.2 °F 93% 30.20 in 4.0 mi SSW 4.6 mph - N/A   Overcast
6:55 PM 28.0 °F 24.2 °F 26.2 °F 93% 30.20 in 4.0 mi South 3.5 mph - N/A   Overcast
7:55 PM 28.2 °F 24.4 °F 26.4 °F 93% 30.21 in 3.0 mi SSW 3.5 mph - N/A   Overcast
8:03 PM 28.4 °F 24.6 °F 26.6 °F 93% 30.17 in 3.0 mi SSW 3.5 mph - N/A   Overcast
8:36 PM 28.4 °F 24.6 °F 26.6 °F 93% 30.17 in 3.0 mi SSW 3.5 mph - N/A   Overcast
8:55 PM 27.9 °F - 26.6 °F 95% 30.20 in 3.0 mi South 2.3 mph - N/A   Overcast
9:55 PM 27.9 °F - 27.0 °F 96% 30.19 in 2.5 mi Calm Calm - N/A   Overcast
10:31 PM 28.4 °F - 26.6 °F 93% 30.15 in 2.0 mi Calm Calm - N/A   Overcast
10:50 PM 28.4 °F - 26.6 °F 93% 30.14 in 2.0 mi Calm Calm - N/A Snow Light Snow Grains
10:55 PM 28.0 °F - 27.1 °F 96% 30.18 in 2.0 mi Calm Calm - 0.00 in Snow Light Snow Grains
10:58 PM 28.4 °F - 26.6 °F 93% 30.14 in 7.0 mi Calm Calm - N/A   Overcast
11:31 PM 28.4 °F - 26.6 °F 93% 30.13 in 6.0 mi Calm Calm - N/A Snow Light Snow
11:58 PM 28.2 °F - 27.3 °F 96% 30.17 in 5.0 mi Calm Calm - 0.00 in Snow Light Snow